Lid_Strength_Index
1 2 1 0 1 1 0 -0 -1 -1 -1 0 -0 -0 -1 -0 -0 -1 -0 1 1 1
2 1 1 -0 -1 -0 -1 -1 -1 -1 -1 0 -1 -1 -1 -1 -0 -0 -0 0 -0 -0
2 1 1 0 -0 -1 -1 -1 -1 -1 -1 -1 -1 -1 -1 -0 -0 0 -0 -0 0 -0
2 1 0 0 0 -1 -1 -1 -0 -1 -1 -1 -0 -0 -1 -0 -1 0 -0 -0 -0 -0
2 2 1 0 0 -1 -1 -0 -0 -0 -1 -1 -0 -1 -0 -0 -0 0 1 -0 -0 0
2 2 2 2 1 -0 -0 -1 -1 -0 0 -0 -1 -1 -1 -1 -0 -0 -0 -0 -0 -0
0 1 1 0 0 0 0 0 0 0 -0 -1 -1 -1 -1 -1 -1 -0 -0 -1 -1 -0
-0 -0 -1 -0 0 -0 -0 0 0 1 1 0 1 1 0 -0 -0 -0 -0 -0 -1 -1
-0 -0 -0 -0 -0 -0 -0 -0 0 0 0 -0 0 4 3 1 -1 -1 -0 0 -0 -1
0 0 -0 -0 -0 0 0 0 1 1 1 1 1 6 6 4 -1 -1 -0 -0 -1 0
0 2 0 0 0 0 0 0 1 1 1 1 3 6 6 5 -0 -0 -0 0 0 1
0 1 3 3 1 -0 -0 -0 -0 1 2 2 2 7 7 4 -0 -0 -0 -0 -0 -0
-0 0 2 3 1 -1 -1 -1 -0 1 2 4 2 7 8 6 2 0 1 -0 -0 4
-0 0 1 2 2 1 -0 -0 -0 0 1 1 3 4 8 8 3 3 2 1 1 0